This demonstration page uses our WeatherBlox Daily Observations layout. Learn more.

Left ArrowRight Arrow

39.08367, -84.50855

Hourly Observations for October 20, 2018

Temp ( °F °C ) Dew Point ( °F °C ) Humidity (%) Winds ( mph kmh ) Pressure ( in mb ) Visibility ( mi km ) Precip ( " mm )
12:53 am 00:53 Cloudy 50 10 49 9.4 96 96 SW 12 19 29.98 1015 10 16 N/A
1:53 am 01:53 Cloudy 51 10.6 49 9.4 92 92 SW 10 17 29.96 1015 10 16 N/A
2:53 am 02:53 Cloudy 51 10.6 49 9.4 92 92 SW 8 13 29.95 1014 10 16 N/A
3:53 am 03:53 Cloudy 51 10.6 50 10 96 96 WSW 12 19 29.95 1014 10 16 N/A
4:53 am 04:53 Cloudy 52 11.1 50 10 93 93 WSW 9 15 29.95 1014 10 16 N/A
5:19 am 05:19 Cloudy with Mist and Fog 52 11.1 51 10.6 97 97 SW 9 15 29.94 1014 6 10 N/A
5:53 am 05:53 Cloudy with Mist and Fog 52 11.1 51 10.6 97 97 SW 9 15 29.94 1014 6 10 N/A
6:53 am 06:53 Cloudy with Light Rain 52 11.1 52 11.1 100 100 WSW 9 15 29.94 1014 6 10 N/A
7:32 am 07:32 Cloudy 53 11.7 51 10.6 93 93 SW 10 17 29.94 1014 10 16 N/A
7:53 am 07:53 Cloudy 52 11.1 51 10.6 97 97 SW 9 15 29.94 1014 10 16 N/A
8:53 am 08:53 Mostly Cloudy 52 11.1 51 10.6 97 97 SW 10 17 29.94 1014 10 16 N/A
9:53 am 09:53 Mostly Cloudy 55 12.8 51 10.6 87 87 WSW 14 22 29.95 1014 10 16 N/A
10:53 am 10:53 Cloudy 55 12.8 49 9.4 80 80 WSW 17 28 29.94 1014 10 16 N/A
11:02 am 11:02 Mostly Cloudy 55 12.8 48 8.9 77 77 WSW 15 24 29.94 1014 10 16 N/A
11:53 am 11:53 Mostly Cloudy 58 14.4 48 8.9 70 70 SW 18 30 29.93 1014 10 16 N/A
12:53 pm 12:53 Mostly Cloudy 59 15 46 7.8 62 62 W 21 33 29.89 1012 10 16 N/A
1:53 pm 13:53 Partly Cloudy 63 17.2 42 5.6 47 47 W 16 26 29.85 1011 10 16 N/A
2:53 pm 14:53 Mostly Cloudy 63 17.2 39 3.9 41 41 W 17 28 29.84 1011 10 16 N/A
3:53 pm 15:53 Mostly Cloudy 62 16.7 38 3.3 41 41 W 21 33 29.82 1010 10 16 N/A
4:53 pm 16:53 Mostly Cloudy 61 16.1 34 1.1 36 36 W 20 31 29.83 1010 10 16 N/A
5:53 pm 17:53 Mostly Cloudy 60 15.6 32 undefined 35 35 W 22 35 29.85 1011 10 16 N/A
6:53 pm 18:53 Cloudy 57 13.9 28 -2.2 33 33 NW 16 26 29.90 1013 10 16 N/A
7:53 pm 19:53 Cloudy 48 8.9 33 0.6 56 56 NW 16 26 30.04 1017 10 16 N/A
8:53 pm 20:53 Cloudy 44 6.7 29 -1.7 55 55 NNW 10 17 30.08 1019 10 16 N/A
9:53 pm 21:53 Clear 41 5 29 -1.7 62 62 WNW 12 19 30.14 1021 10 16 N/A
10:53 pm 22:53 Cloudy 41 5 30 -1.1 65 65 WNW 13 20 30.19 1022 10 16 N/A
11:53 pm 23:53 Cloudy 42 5.6 32 undefined 68 68 NNW 15 24 30.22 1023 10 16 N/A

Powered by AerisWeather